Meteo Giornale » Osservazioni meteo Gran Bretagna » Cosford Royal

ore: 20:20 - Osservazioni Meteo Cosford Royal
Lat. 52° 38' N Lon. 2° 18' W Alt. 83 metri s.l.m.

sereno

0 °C

Sereno

Temp. 24 Ore

0 °C

0 °C

Sud-Ovest

3.7 Km/h

Dew point 0 °C

Umidità 55 %

Visibilità  12 Km

Il sole sorge alle ore 06:20

Il sole tramonta alle ore 19:58

Data e Ora Cielo e Fenomeni T °C DP °C Um. % Pres. hPa Vis. km Vento km/h
Oggi h: 20:20 sereno Sereno 0 0 55 0 12 SO 3.7
Oggi h: 19:50 sereno Sereno 0 0 72 0 12 SO 9.3
Oggi h: 19:20 sereno Sereno 0 0 52 0 12 SO 11.1
Oggi h: 18:50 sereno Sereno 0 0 67 0 12 SO 13
Oggi h: 18:20 sereno Sereno 0 0 56 0 12 O/SO 11.1
Oggi h: 17:50 sereno Sereno 0 0 59 0 12 O 13
Oggi h: 17:20 sereno Sereno 0 0 56 0 12 O/SO 14.8
Oggi h: 16:50 sereno Sereno 0 0 52 0 12 O/SO 18.5
Oggi h: 16:20 sereno Sereno 0 0 43 0 12 SO 16.7
Oggi h: 15:50 sereno Sereno 0 0 49 0 11 SO 18.5
Oggi h: 15:20 sereno Sereno 0 0 46 0 11 SO 16.7
Oggi h: 14:50 sereno Sereno 0 0 37 0 11 SO 14.8
Oggi h: 14:20 sereno Sereno 0 0 93 0 11 O/SO 14.8
Oggi h: 13:50 sereno Sereno 0 0 43 0 11 O/SO 14.8
Oggi h: 13:20 sereno Sereno 0 0 100 0 11 O/SO 14.8
Oggi h: 12:50 sereno Sereno 0 0 43 0 11 O 14.8
Oggi h: 12:20 sereno Sereno 0 0 100 0 11 SO 11.1
Oggi h: 11:50 sereno Sereno 0 0 55 0 11 SO 14.8
Oggi h: 11:20 sereno Sereno 0 0 100 0 11 SO 14.8
Oggi h: 10:50 sereno Sereno 0 0 72 0 11 O/SO 16.7
Oggi h: 10:20 sereno Sereno 0 0 67 0 11 O/SO 14.8
Oggi h: 09:50 sereno Sereno 0 0 82 0 11 S 11.1
Oggi h: 09:20 sereno Sereno 0 0 72 0 11 S 11.1
Oggi h: 08:50 sereno Sereno 0 0 87 0 11 S 9.3
Oggi h: 08:20 sereno Sereno 0 0 100 0 11 S/SO 9.3
Oggi h: 07:50 sereno Sereno 0 0 93 0 11 S 7.4
Oggi h: 07:20 sereno Sereno 0 0 87 0 11 S 5.5
Oggi h: 06:50 sereno Sereno 0 0 87 0 11 N 0
Oggi h: 06:20 sereno Sereno 0 0 87 0 11 SE 1.8
Oggi h: 05:50 sereno Sereno 0 0 87 0 10 S 3.7
Oggi h: 05:20 sereno Sereno 0 0 87 0 10 S 1.8
Oggi h: 04:50 sereno Sereno 0 0 93 0 10 S 3.7
Oggi h: 04:20 sereno Sereno 0 0 87 0 10 S 3.7
Oggi h: 03:50 sereno Sereno 0 0 81 0 10 S/SO 5.5
Oggi h: 03:20 sereno Sereno 0 0 87 0 10 S/SO 7.4
Oggi h: 02:50 sereno Sereno 0 0 87 0 10 SO 5.5
Oggi h: 02:20 sereno Sereno 0 0 87 0 10 S/SO 3.7
Oggi h: 01:50 sereno Sereno 0 0 81 0 10 S/SO 5.5
Oggi h: 01:20 sereno Sereno 0 0 81 0 10 SO 5.5
Oggi h: 00:50 sereno Sereno 0 0 81 0 0 S/SO 5.5
Oggi h: 00:20 sereno Sereno 0 0 81 0 0 SO 5.5
Ieri h: 23:50 sereno Sereno 0 0 76 0 0 SO 5.5
Ieri h: 23:20 sereno Sereno 0 0 76 0 0 O/SO 5.5
Ieri h: 22:50 sereno Sereno 0 0 76 0 0 O/SO 5.5
Ieri h: 22:20 sereno Sereno 0 0 76 0 0 O 9.3
Ieri h: 21:50 sereno Sereno 0 0 72 0 0 O 9.3